Location: Ariel
(45.9570°N, 122.5700°W)
Time: 08:53:26
(UTC-07:00)

A-11 Canister half - Pass Details

Date: 25 August 2019
Orbit: 1514 x 1686 km, 47.2° (Epoch: 23 October)

Event Time Altitude Azimuth Distance (km) Brightness Sun altitude
Rises 21:52:10 0° 279° (W) 4,723 12.6 -17.9°
Reaches altitude 10° 21:55:11 10° 280° (W) 3,759 12.0 -18.4°
Maximum altitude 22:04:49 87° 10° (N) 1,615 9.0 -19.6°
Enters shadow 22:11:49 23° 101° (E) 2,977 10.0 -20.6°
